Regional Weather Roundup
Issued by NWS Wilmington, NC

Home | Current Version | Previous Version | Text Only | Print | Product List | Glossary On
Versions: 1 2 3 4 5 6 7 8 9 10 11 12 13 14 15 16 17 18 19 20 21 22 23 24 25 26 27 28 29 30 31 32 33 34 35 36 37 38 39 40 41 42 43 44 45 46 47 48 49 50
000
ASUS42 KILM 280112
RWRILM
RWRILM
REGIONAL HOURLY WEATHER ROUNDUP
NATIONAL WEATHER SERVICE WILMINGTON NC
900 PM EDT FRI MAR 27 2015

NOTE: "FAIR" INDICATES FEW OR NO CLOUDS BELOW 12,000 FEET WITH NO
SIGNIFICANT WEATHER AND/OR OBSTRUCTIONS TO VISIBILITY.

...............WFO WILMINGTON COUNTY WARNING AREA...............

......COASTAL NC AND SC COUNTIES......

CITY           SKY/WX    TMP DP  RH WIND       PRES   REMARKS
WILMINGTON     CLOUDY    46  43  89 N9        29.76R
SOUTHPORT      CLOUDY    46  43  89 N12G18    29.75R
N MYRTLE BEACH LGT RAIN  47  45  93 N13       29.76R FOG
MYRTLE BEACH   CLOUDY    48  43  81 N17       29.78R

......INLAND NC AND SC COUNTIES.......

CITY           SKY/WX    TMP DP  RH WIND       PRES   REMARKS
LUMBERTON      CLOUDY    46  42  86 N12       29.79S
ELIZABETHTOWN  CLOUDY    44  42  91 N3        29.79R
WHITEVILLE     CLOUDY    45  42  88 N8        29.78R
FLORENCE       LGT RAIN  47  44  90 N12       29.80R FOG
DARLINGTON     CLOUDY    46  41  81 NE8       29.82S

....................REST OF NORTH CAROLINA......................

.........EASTERN NC.........

CITY           SKY/WX    TMP DP  RH WIND       PRES   REMARKS
CAPE HATTERAS  LGT RAIN  43  39  86 N16G30    29.72R
JACKSONVILLE   CLOUDY    43  37  81 N9G17     29.78R
MOREHEAD CITY  CLOUDY    45  43  93 N14       29.73S
KENANSVILLE    CLOUDY    43  41  92 N9        29.79S
NEW BERN       CLOUDY    44  40  85 N14       29.77S
ELIZABETH CITY CLOUDY    41  37  87 N15       29.78S

.........CENTRAL NC.........

CITY           SKY/WX    TMP DP  RH WIND       PRES   REMARKS
RALEIGH DURHAM CLOUDY    41  38  89 NE3       29.81S
ROCKY MOUNT    CLOUDY    42  38  85 N8        29.81R
ROANOKE RAPIDS NOT AVBL
FAYETTEVILLE   CLOUDY    45  41  86 N9        29.80R
HOFFMAN        MOCLDY    45  42  91 N6        29.85

.........WESTERN NC.........

CITY           SKY/WX    TMP DP  RH WIND       PRES   REMARKS
CHARLOTTE      CLOUDY    47  39  74 CALM      29.82R
GREENSBORO     CLOUDY    45  36  70 CALM      29.79R
HICKORY        NOT AVBL
BOONE          NOT AVBL
ASHEVILLE      NOT AVBL

.....................REST OF SOUTH CAROLINA.....................

.........EASTERN SC.........

CITY           SKY/WX    TMP DP  RH WIND       PRES   REMARKS
CHARLESTON     CLOUDY    52  48  86 N10       29.79R
BEAUFORT MCAS  MOCLDY    54  49  83 N12       29.80R
HILTON HEAD    MOCLDY    57  54  88 N14G20    29.80R

.........CENTRAL SC.........

CITY           SKY/WX    TMP DP  RH WIND       PRES   REMARKS
COLUMBIA       LGT RAIN  50  42  74 NE3       29.83R
ORANGEBURG     MOCLDY    50  42  74 N10       29.81R
SUMTER SHAW    CLOUDY    46  41  81 NE9       29.81R

.........WESTERN SC.........

CITY           SKY/WX    TMP DP  RH WIND       PRES   REMARKS
GREENVILLE     NOT AVBL
ROCK HILL      CLOUDY    46  41  82 NW3       29.83R
ANDERSON       MOCLDY    45  40  82 SW6       29.85R
CLEMSON        NOT AVBL
GREENWOOD      CLOUDY    45  42  89 NE5       29.86R


...................COASTAL AND OFFSHORE REPORTS..................

................LOCAL PIERS AND NC RESERVE................


STATION/POSITION TIME  SKY/WX   TEMP    WIND        PRES    VSBY
                                AIR SEA DIR/SP/G
                 (UTC)          (F)     (DEG/KT/KT) (MB)    (MI)
JOHNY MRCER PIER 0000                    20/ 19/ 24 1005.7R
NC RESRV MASNBRO NOT AVBL
OCEAN CREST PIER 0102            46 54  340/ 13/ 18 1006.1R
SPRINGMAID  PIER 0000            49 56  350/ 10/ 16 1006.9R


................COASTAL AND OFFSHORE BUOYS................


STATION/POSITION TIME  SKY/WX   TEMP    WIND        PRES    VSBY
                                AIR SEA DIR/SP/G
                 (UTC)          (F)     (DEG/KT/KT) (MB)    (MI)
DIMNDSHOAL 41025 NOT AVBL
CAPE LOOKOUT     0100            45      10/ 19/ 26 1006.1R
ONSLOW BAY 41036 NOT AVBL
5 WRITEBCH 41038 0000            50 57   20/ 21/ 27 1006.2R
MASONBORO  41110 0019               57                N/A
WVE H/P(F/S)=  5/ 8 WND WVE H/P(F/S)=  5/ 8

WILM HARBR 41108 0011               60                N/A
WVE H/P(F/S)=  5/ 8 WND WVE H/P(F/S)=  5/ 8

27WRITEBCH 41037 0000            49 64   30/ 21/ 27 1005.8F
FRYING PAN 41013 0050            54 65   10/ 23/ 29 1005.0R
WVE H/P(F/S)=  8/ 8 WND WVE H/P(F/S)=  7/ 8 SWL H/P/D(F/S/D)=  2/12

SUNST NRSH 41024 0000            49      10/ 17/ 21   N/A
CAPRS NRSH 41029 0000            53     350/ 19/ 25   N/A
EDISTO     41004 0050            57 69  350/ 19/ 23 1005.8R
WVE H/P(F/S)=  6/ 6 WND WVE H/P(F/S)=  5/ 6 SWL H/P/D(F/S/D)=  3/ 8



..........OFFSHORE BUOYS BEYOND 100 NM OFFSHORE...........
.....IN A TRIANGLE---HAT TO BERMUDA TO BAHAMAS TO HAT.....


STATION/POSITION TIME  SKY/WX   TEMP    WIND        PRES    VSBY
                                AIR SEA DIR/SP/G
                 (UTC)          (F)     (DEG/KT/KT) (MB)    (MI)
150E HAT   41001 NOT AVBL
W BERMUDA  41048 0050            71 69  190/ 19/ 23 1011.8R
WVE H/P(F/S)=  8/ 8 WND WVE H/P(F/S)=  8/ 8

ATLANTIC S 41049 0050            74 74  140/ 19/ 23 1022.5R
WVE H/P(F/S)=  6/ 8 WND WVE H/P(F/S)=  5/ 8 SWL H/P/D(F/S/D)=  3/ 40/10

E BAHAMAS  41046 0050            78 79  140/ 14/ 17 1018.6R
WVE H/P(F/S)=  7/ 8 WND WVE H/P(F/S)=  3/ 6 SWL H/P/D(F/S/D)=  5/ 70/ 8

NE BAHAMAS 41047 0050            76 75  190/ 16/ 19 1015.3R
WVE H/P(F/S)=  6/ 8 WND WVE H/P(F/S)=  5/ 7 SWL H/P/D(F/S/D)=  3/ 90/ 8

120E CANVRL41010 0020            76 76  260/ 19/ 27 1008.9F

END


USA.gov is the U.S. government's official web portal to all federal, state and local government web resources and services.